Location: ????????
(56.0167°N, 38.0333°E)
Time: 15:10:18
(UTC+00:00)

Cosmos 2297 Rocket - Pass Details

Date: 04 August 2025
Orbit: 840 x 841 km, 71.0° (Epoch: 20 April)

Event Time Altitude Azimuth Distance (km) Brightness Sun altitude
Rises 18:19:47 0° 319° (NW) 3,408 8.0 -6.4°
Reaches altitude 10° 18:23:04 10° 300° (WNW) 2,467 6.2 -6.7°
Maximum altitude 18:26:33 17° 261° (W) 2,013 4.7 -7.1°
Drops below altitude 10° 18:30:01 10° 223° (SW) 2,456 4.6 -7.4°
Enters shadow 18:36:58 -10° 193° (SSW) 4,627 5.7 -8.1°
